Home   Weather   Dallas   Past weeks
Flag for USA

Past Weather in Dallas, Texas, USA — Yesterday and Last 2 Weeks

Now
97 °F

Scattered clouds.


Feels Like: 106 °F
Forecast: 98 / 80 °F
Wind: 10 mph from Southwest

Location: Dallas Love Field

Current Time: Jul 16, 2019 at 4:16:20 pm

Latest Report: Jul 16, 2019 at 2:53 pm


Visibility: 10 mi

Pressure: 29.91 "Hg

Humidity: 45%

Dew Point: 72 °F

Location of DallasLocation

Past Weather in Dallas — Graph

°F

Dallas Temperature Yesterday

Maximum temperature yesterday: 94 °F (at 3:53 pm)
Minimum temperature yesterday: 74 °F (at 3:53 am)
Average temperature yesterday: 85 °F

High & Low Weather Summary for the Past Weeks

 TemperatureHumidityPressure
High97 °F (Jul 7, 4:53 pm)88% (Jul 2, 6:53 am)30.09 "Hg (Jul 2, 6:53 am)
Low74 °F (Jul 15, 3:53 am)34% (Jul 11, 3:53 pm)29.80 "Hg (Jul 12, 6:53 pm)
Average85 °F62%29.92 "Hg
* Reported Jul 1 2:53 pm — Jul 16 2:53 pm, Dallas. Weather by CustomWeather, © 2019

Note: Actual official high and low records may vary slightly from our data, if they occured in-between our weather recording intervals... More about our weather records

Advertising

Dallas Weather History for the Previous 24 Hours

Scroll right to see more
 ConditionsComfort  
Time TempWeatherWind HumidityBarometerVisibility
2:53 pm
Tue, Jul 16
97 °FScattered clouds.10 mph45%29.91 "Hg10 mi
1:53 pm95 °FScattered clouds.9 mph47%29.93 "Hg10 mi
12:53 pm94 °FScattered clouds.12 mph49%29.94 "Hg10 mi
11:53 am92 °FPassing clouds.9 mph51%29.95 "Hg10 mi
10:53 am89 °FPassing clouds.9 mph57%29.95 "Hg10 mi
9:53 am87 °FPassing clouds.10 mph61%29.94 "Hg10 mi
8:53 am86 °FPassing clouds.8 mph63%29.93 "Hg10 mi
7:53 am83 °FPassing clouds.8 mph70%29.93 "Hg10 mi
6:53 am81 °FPassing clouds.7 mph77%29.91 "Hg10 mi
5:53 am82 °FPassing clouds.8 mph74%29.90 "Hg10 mi
4:53 am82 °FPassing clouds.7 mph77%29.88 "Hg10 mi
3:53 am83 °FPassing clouds.13 mph74%29.87 "Hg10 mi
2:53 am83 °FPassing clouds.5 mph77%29.87 "Hg10 mi
1:53 am83 °FPassing clouds.8 mph74%29.87 "Hg10 mi
12:53 am85 °FPassing clouds.7 mph68%29.87 "Hg10 mi
11:53 pm
Mon, Jul 15
86 °FClear.12 mph63%29.88 "Hg10 mi
10:53 pm87 °FClear.10 mph59%29.87 "Hg10 mi
9:53 pm89 °FClear.10 mph52%29.85 "Hg10 mi
8:53 pm92 °FPassing clouds.6 mph44%29.83 "Hg10 mi
7:53 pm93 °FPassing clouds.6 mph41%29.83 "Hg10 mi
6:53 pm94 °FPassing clouds.8 mph38%29.83 "Hg10 mi
5:53 pm94 °FScattered clouds.3 mph38%29.83 "Hg10 mi
4:53 pm94 °FScattered clouds.9 mph40%29.85 "Hg10 mi
Weather by CustomWeather, © 2019

See weather overview

LIVE PARTIAL LUNAR ECLIPSE – Watch the eclipse as it happens